Weather History for Monte Cimone, Italy

Change the Weather History Date:

Wednesday, October 17, 2012

  Actual Average Record
Temperature  
Mean Temperature 43 °F -  
Max Temperature 49 °F 38 °F 53 °F (2001)
Min Temperature 37 °F 30 °F 24 °F (2003)
Degree Days  
Heating Degree Days 22    
Moisture  
Dew Point 37 °F    
Average Humidity 80    
Maximum Humidity 100    
Minimum Humidity 56    
Precipitation  
Precipitation 0.02 in 0.11 in - ()
Sea Level Pressure  
Sea Level Pressure 30.24 in    
Wind  
Wind Speed 22 mph ()    
Max Wind Speed 38 mph    
Max Gust Speed -    
Visibility 4.3 miles    
Events Fog , Rain    
Averages and records for this station are not official NWS values.
T = Trace of Precipitation, MM = Missing Value Source: Averaged Metar Reports

Daily Weather History Graph

Daily Weather History Graph

Search for Another Location

Airport:

Trip Planner

Search our weather history database for the weather conditions in past years. The results will help you decide how hot, cold, wet, or windy it might be!

Date:

Astronomy

Oct. 17, 2012 Rise Set
Actual Time 7:34 AM CEST 6:29 PM CEST
Civil Twilight 7:05 AM CEST 6:58 PM CEST
Nautical Twilight 6:31 AM CEST 7:32 PM CEST
Astronomical Twilight 5:58 AM CEST 8:05 PM CEST
Moon 9:55 AM CEST (10/17) 7:43 PM CEST (10/17)
Length of Visible Light 11h 53m
Length of Day
10h 54m
Waxing Crescent, 5% of the Moon is Illuminated
Oct 17
Waxing Crescent
Oct 22
First Quarter
Oct 29
Full
Nov 7
Last Quarter
Nov 13
New

Hourly Weather History & Observations

Time (CEST) Temp. Windchill Dew Point Humidity Pressure Visibility Wind Dir Wind Speed Gust Speed Precip Events Conditions
12:55 AM 39.2 °F 27.4 °F 24.8 °F 56% 30.09 in - West 29.9 mph - N/A   Clear
1:55 AM 37.4 °F 24.4 °F 30.2 °F 75% 30.12 in 6.2 mi West 33.4 mph - N/A   Scattered Clouds
2:00 AM 38 °F - 31 °F 67%  in 12 mi West 33.4 mph - -   Partly Cloudy
2:55 AM 37.4 °F 23.6 °F 37.4 °F 100% 30.09 in 0.0 mi West 38.0 mph - N/A Fog Fog
3:55 AM 41.0 °F 28.8 °F 39.2 °F 93% 30.12 in 0.0 mi West 36.8 mph - N/A Fog , Rain Light Rain
5:55 AM 41.0 °F 29.1 °F 39.2 °F 93% 30.15 in 0.0 mi West 34.5 mph - N/A Fog , Rain Light Rain
6:55 AM 39.2 °F 27.6 °F 37.4 °F 93% 30.15 in 0.0 mi West 28.8 mph - N/A Fog , Rain Light Rain
7:55 AM 39.2 °F 27.6 °F 37.4 °F 93% 30.18 in 0.0 mi West 28.8 mph - N/A Fog , Rain Light Rain
8:00 AM 39 °F - 37 °F 92%  in 0 mi West 28.8 mph - - Rain Light Rain
8:55 AM 39.2 °F 27.6 °F 37.4 °F 93% 30.21 in 0.0 mi West 28.8 mph - N/A Fog , Rain Light Rain
9:55 AM 39.2 °F 28.0 °F 37.4 °F 93% 30.21 in 0.0 mi West 26.5 mph - N/A Fog , Rain Light Rain
10:55 AM 41.0 °F 31.1 °F 39.2 °F 93% 30.24 in 0.0 mi West 23.0 mph - N/A Fog Fog
11:55 AM 42.8 °F 34.0 °F 41.0 °F 93% 30.27 in 0.0 mi West 20.7 mph - N/A Fog Fog
12:55 PM 44.6 °F 37.2 °F 41.0 °F 87% 30.30 in - West 17.3 mph - N/A   Clear
1:55 PM 46.4 °F 40.4 °F 41.0 °F 81% 30.30 in - West 13.8 mph - N/A   Clear
2:00 PM 47 °F - 41 °F 73%  in 19 mi West 13.8 mph - -   Partly Cloudy
2:55 PM 50.0 °F - 39.2 °F 66% 30.30 in 6.2 mi West 13.8 mph - N/A   Partly Cloudy
3:55 PM 50.0 °F - 41.0 °F 71% 30.30 in 6.2 mi West 12.7 mph - N/A   Partly Cloudy
4:55 PM 48.2 °F - 39.2 °F 71% 30.30 in - West 9.2 mph - N/A   Clear
5:55 PM 46.4 °F 41.5 °F 35.6 °F 66% 30.30 in - West 10.4 mph - N/A   Clear
6:55 PM 44.6 °F 38.4 °F 37.4 °F 76% 30.27 in - West 12.7 mph - N/A   Clear
7:55 PM 44.6 °F 39.2 °F 37.4 °F 76% 30.30 in - West 10.4 mph - N/A   Clear
8:00 PM 45 °F - 38 °F 67%  in 19 mi West 10.4 mph - -  
8:55 PM 44.6 °F 39.2 °F 37.4 °F 76% 30.30 in - West 10.4 mph - N/A   Clear
9:55 PM 44.6 °F 39.7 °F 39.2 °F 81% 30.30 in - SW 9.2 mph - N/A   Clear
10:55 PM 44.6 °F 41.4 °F 39.2 °F 81% 30.33 in - West 5.8 mph - N/A   Clear
11:55 PM 44.6 °F 36.4 °F 32.0 °F 61% 30.33 in - West 20.7 mph - N/A   Clear